| time (UTC) | temp F | wind direction | speed knots | gust knots | rain 1hr in | rain 24hr in | rain mn in | humidity % | barometer mb |
| 20260508090519 | 64 | 225 | 1.7 | 2.6 | 0.00 | 0.88 | 0.00 | 73 | 1015.3 |
| 20260508085519 | 64 | 225 | 0.9 | 2.6 | 0.00 | 0.88 | 0.00 | 73 | 1015.4 |
| 20260508084519 | 64 | 0.0 | 0.9 | 0.00 | 0.88 | 0.00 | 72 | 1015.3 | |
| 20260508083519 | 65 | 225 | 0.9 | 1.7 | 0.00 | 0.88 | 0.00 | 70 | 1015.3 |
| 20260508082519 | 64 | 0.0 | 0.0 | 0.00 | 0.88 | 0.00 | 70 | 1015.0 | |
| 20260508081519 | 65 | 0.0 | 0.9 | 0.00 | 0.88 | 0.00 | 69 | 1015.0 | |
| 20260508080518 | 65 | 0.0 | 0.0 | 0.00 | 0.88 | 0.00 | 69 | 1015.0 | |
| 20260508075519 | 66 | 0.0 | 0.0 | 0.00 | 0.88 | 0.00 | 72 | 1014.8 | |
| 20260508074519 | 65 | 0.0 | 0.9 | 0.00 | 0.88 | 0.00 | 71 | 1014.6 | |
| 20260508073519 | 64 | 0.0 | 0.0 | 0.00 | 0.88 | 0.00 | 72 | 1014.6 | |
| 20260508072519 | 62 | 0.0 | 0.9 | 0.00 | 0.88 | 0.00 | 75 | 1014.7 | |
| 20260508071519 | 62 | 0.0 | 0.9 | 0.00 | 0.88 | 0.00 | 81 | 1014.5 | |
| 20260508070559 | 61 | 0.0 | 0.0 | 0.00 | 0.88 | 0.00 | 81 | 1014.3 | |
| 20260508065519 | 60 | 0.0 | 0.0 | 0.00 | 0.88 | 0.00 | 81 | 1014.4 | |
| 20260508064519 | 60 | 0.0 | 0.9 | 0.00 | 0.88 | 0.00 | 81 | 1014.3 | |
| 20260508063538 | 59 | 0.0 | 0.9 | 0.00 | 0.88 | 0.00 | 82 | 1014.2 | |
| 20260508062518 | 59 | 0.0 | 0.9 | 0.00 | 0.88 | 0.00 | 83 | 1014.0 | |
| 20260508061519 | 58 | 0.0 | 0.9 | 0.00 | 0.88 | 0.00 | 84 | 1014.0 | |
| 20260508060539 | 58 | 0.0 | 0.9 | 0.00 | 0.88 | 0.00 | 84 | 1014.0 | |
| 20260508055519 | 58 | 0.0 | 0.0 | 0.00 | 0.88 | 0.00 | 84 | 1014.1 | |
| 20260508054519 | 57 | 0.0 | 0.0 | 0.00 | 0.88 | 0.00 | 84 | 1014.0 | |
| 20260508053519 | 57 | 0.0 | 0.0 | 0.00 | 0.88 | 0.00 | 85 | 1013.8 | |
| 20260508052519 | 57 | 0.0 | 0.0 | 0.00 | 0.88 | 0.00 | 86 | 1013.6 | |
| 20260508051518 | 56 | 0.0 | 0.9 | 0.00 | 0.88 | 0.00 | 86 | 1013.6 | |
| 20260508050519 | 56 | 0.0 | 0.9 | 0.00 | 0.88 | 0.00 | 87 | 1013.4 | |
| 20260508045519 | 56 | 0.0 | 1.7 | 0.00 | 0.88 | 0.00 | 87 | 1013.4 | |
| 20260508044519 | 56 | 270 | 1.7 | 2.6 | 0.00 | 0.88 | 0.00 | 86 | 1013.4 |
| 20260508043519 | 56 | 248 | 2.6 | 4.3 | 0.00 | 0.88 | 0.00 | 87 | 1013.3 |
| 20260508042520 | 57 | 0.0 | 0.9 | 0.00 | 0.88 | 0.00 | 86 | 1013.0 | |
| 20260508041519 | 56 | 0.0 | 0.9 | 0.00 | 0.88 | 0.00 | 85 | 1012.7 | |
| 20260508040519 | 56 | 270 | 0.9 | 1.7 | 0.00 | 0.88 | 0.00 | 85 | 1012.8 |
| 20260508035519 | 56 | 270 | 0.9 | 1.7 | 0.00 | 0.88 | 0.00 | 86 | 1012.7 |
| 20260508034519 | 56 | 293 | 1.7 | 3.5 | 0.00 | 0.88 | 0.00 | 86 | 1012.8 |
| 20260508033519 | 56 | 270 | 0.9 | 2.6 | 0.00 | 0.88 | 0.00 | 87 | 1012.9 |
| 20260508032518 | 56 | 270 | 0.9 | 1.7 | 0.00 | 0.88 | 0.00 | 87 | 1013.1 |
| 20260508031519 | 56 | 0.0 | 0.9 | 0.00 | 0.88 | 0.00 | 87 | 1013.1 | |
| 20260508030518 | 57 | 248 | 0.9 | 1.7 | 0.00 | 0.88 | 0.00 | 86 | 1013.2 |
| 20260508025518 | 57 | 248 | 0.9 | 2.6 | 0.00 | 0.88 | 0.00 | 86 | 1013.1 |
| 20260508024519 | 56 | 270 | 1.7 | 3.5 | 0.00 | 0.88 | 0.00 | 86 | 1013.1 |
| 20260508023619 | 56 | 270 | 3.5 | 7.8 | 0.00 | 0.88 | 0.00 | 86 | 1013.1 |
| 20260508022519 | 56 | 293 | 3.5 | 7.0 | 0.00 | 0.88 | 0.00 | 86 | 1013.1 |
| 20260508021539 | 57 | 293 | 3.5 | 6.1 | 0.00 | 0.88 | 0.00 | 86 | 1013.2 |
| 20260508020518 | 56 | 270 | 4.3 | 7.0 | 0.00 | 0.88 | 0.00 | 87 | 1013.2 |
| 20260508015539 | 56 | 270 | 3.5 | 5.2 | 0.00 | 0.88 | 0.00 | 88 | 1013.2 |
| 20260508014519 | 56 | 270 | 3.5 | 6.1 | 0.00 | 0.88 | 0.00 | 88 | 1013.4 |
| 20260508013519 | 56 | 293 | 3.5 | 5.2 | 0.00 | 0.88 | 0.00 | 88 | 1013.5 |
| 20260508012519 | 57 | 270 | 3.5 | 5.2 | 0.00 | 0.88 | 0.00 | 87 | 1013.7 |
| 20260508011519 | 57 | 270 | 2.6 | 4.3 | 0.00 | 0.88 | 0.00 | 86 | 1014.0 |
| 20260508010519 | 57 | 270 | 1.7 | 2.6 | 0.00 | 0.88 | 0.00 | 86 | 1014.1 |
| 20260508005519 | 58 | 270 | 1.7 | 3.5 | 0.00 | 0.88 | 0.00 | 86 | 1014.3 |
| 20260508004519 | 58 | 270 | 1.7 | 3.5 | 0.00 | 0.88 | 0.00 | 87 | 1014.4 |
| 20260508003519 | 57 | 270 | 1.7 | 5.2 | 0.00 | 0.88 | 0.00 | 88 | 1014.5 |
| 20260508002519 | 57 | 293 | 3.5 | 7.0 | 0.00 | 0.88 | 0.00 | 90 | 1014.5 |
| 20260508001519 | 56 | 270 | 3.5 | 6.1 | 0.00 | 0.88 | 0.00 | 92 | 1014.7 |
| 20260508000519 | 56 | 270 | 3.5 | 6.1 | 0.00 | 0.88 | 0.00 | 94 | 1014.7 |
| 20260507235519 | 56 | 270 | 3.5 | 6.1 | 0.00 | 0.88 | 0.88 | 95 | 1014.8 |
| 20260507234518 | 56 | 248 | 3.5 | 5.2 | 0.00 | 0.88 | 0.88 | 95 | 1014.9 |
| 20260507233519 | 56 | 248 | 1.7 | 3.5 | 0.00 | 0.88 | 0.88 | 96 | 1014.9 |
| 20260507232519 | 56 | 270 | 2.6 | 3.5 | 0.00 | 0.88 | 0.88 | 96 | 1015.0 |
| 20260507231519 | 56 | 270 | 1.7 | 3.5 | 0.00 | 0.88 | 0.88 | 96 | 1015.0 |
| 20260507230519 | 56 | 270 | 1.7 | 2.6 | 0.00 | 0.88 | 0.88 | 97 | 1015.0 |
| 20260507225519 | 57 | 248 | 0.9 | 1.7 | 0.00 | 0.88 | 0.88 | 97 | 1014.9 |
| 20260507224519 | 57 | 248 | 0.9 | 1.7 | 0.00 | 0.88 | 0.88 | 97 | 1014.9 |
| 20260507223519 | 58 | 0.0 | 0.0 | 0.00 | 0.88 | 0.88 | 97 | 1014.7 | |
| 20260507222539 | 57 | 248 | 0.9 | 1.7 | 0.00 | 0.88 | 0.88 | 97 | 1014.4 |
| 20260507221519 | 57 | 0.0 | 0.9 | 0.00 | 0.88 | 0.88 | 97 | 1014.5 | |
| 20260507220519 | 58 | 0.0 | 0.9 | 0.00 | 0.88 | 0.88 | 97 | 1014.6 | |
| 20260507215519 | 58 | 248 | 1.7 | 2.6 | 0.00 | 0.88 | 0.88 | 97 | 1014.5 |
| 20260507214519 | 58 | 293 | 0.9 | 1.7 | 0.00 | 0.88 | 0.88 | 97 | 1014.6 |
| 20260507213519 | 58 | 0.0 | 0.9 | 0.00 | 0.88 | 0.88 | 97 | 1014.7 | |
| 20260507212519 | 58 | 0.0 | 0.9 | 0.00 | 0.88 | 0.88 | 97 | 1014.8 | |
| 20260507211519 | 58 | 293 | 0.9 | 2.6 | 0.00 | 0.88 | 0.88 | 97 | 1014.6 |
| 20260507210519 | 58 | 0.0 | 1.7 | 0.00 | 0.88 | 0.88 | 97 | 1014.7 | |
| 20260507205518 | 58 | 248 | 0.9 | 2.6 | 0.00 | 0.88 | 0.88 | 97 | 1014.6 |
| 20260507204519 | 58 | 270 | 1.7 | 3.5 | 0.00 | 0.88 | 0.88 | 97 | 1014.6 |
| 20260507203519 | 58 | 293 | 3.5 | 5.2 | 0.00 | 0.88 | 0.88 | 97 | 1014.5 |
| 20260507202519 | 58 | 270 | 2.6 | 4.3 | 0.01 | 0.88 | 0.88 | 97 | 1014.4 |
| 20260507201519 | 58 | 45 | 0.9 | 1.7 | 0.01 | 0.88 | 0.88 | 97 | 1014.3 |
| 20260507200519 | 57 | 0.0 | 0.9 | 0.02 | 0.88 | 0.88 | 97 | 1014.2 | |
| 20260507195519 | 58 | 90 | 0.9 | 1.7 | 0.02 | 0.88 | 0.88 | 97 | 1014.1 |
| 20260507194519 | 58 | 68 | 1.7 | 5.2 | 0.05 | 0.88 | 0.88 | 97 | 1014.1 |
| 20260507193539 | 59 | 0.0 | 2.6 | 0.07 | 0.88 | 0.88 | 97 | 1014.0 | |
| 20260507192519 | 59 | 23 | 0.9 | 2.6 | 0.10 | 0.87 | 0.87 | 97 | 1013.9 |
| 20260507191519 | 59 | 0.0 | 0.9 | 0.14 | 0.87 | 0.87 | 97 | 1013.8 | |
| 20260507190519 | 58 | 0.0 | 0.9 | 0.17 | 0.87 | 0.87 | 97 | 1013.6 | |
| 20260507185519 | 58 | 0.0 | 1.7 | 0.21 | 0.86 | 0.86 | 97 | 1013.5 | |
| 20260507184519 | 59 | 0.0 | 0.9 | 0.21 | 0.83 | 0.83 | 97 | 1013.6 | |
| 20260507183519 | 59 | 0.0 | 0.0 | 0.26 | 0.81 | 0.81 | 97 | 1013.5 | |
| 20260507182519 | 58 | 0.0 | 0.9 | 0.40 | 0.77 | 0.77 | 96 | 1013.5 | |
| 20260507181519 | 58 | 0.0 | 0.9 | 0.71 | 0.73 | 0.73 | 96 | 1013.5 | |
| 20260507180519 | 58 | 0.0 | 0.9 | 0.69 | 0.69 | 0.69 | 96 | 1013.5 | |
| 20260507175539 | 58 | 0.0 | 0.9 | 0.65 | 0.65 | 0.65 | 96 | 1013.4 | |
| 20260507174539 | 58 | 0.0 | 3.5 | 0.62 | 0.62 | 0.62 | 95 | 1013.3 | |
| 20260507173519 | 58 | 23 | 1.7 | 7.8 | 0.55 | 0.55 | 0.55 | 94 | 1013.2 |
| 20260507172519 | 59 | 225 | 2.6 | 7.0 | 0.37 | 0.37 | 0.37 | 87 | 1013.1 |
| 20260507171519 | 60 | 248 | 3.5 | 7.8 | 0.02 | 0.02 | 0.02 | 81 | 1012.6 |
| 20260507170519 | 62 | 338 | 3.5 | 8.7 | 0.00 | 0.00 | 0.00 | 76 | 1012.4 |
| 20260507165519 | 63 | 23 | 1.7 | 7.0 | 0.00 | 0.00 | 0.00 | 77 | 1012.3 |
| 20260507164519 | 64 | 338 | 2.6 | 7.0 | 0.00 | 0.00 | 0.00 | 75 | 1012.1 |
| 20260507163539 | 65 | 270 | 4.3 | 8.7 | 0.00 | 0.00 | 0.00 | 71 | 1012.0 |
| 20260507162519 | 65 | 270 | 1.7 | 4.3 | 0.00 | 0.00 | 0.00 | 69 | 1012.1 |
| 20260507161519 | 66 | 293 | 1.7 | 3.5 | 0.00 | 0.00 | 0.00 | 67 | 1012.0 |
| 20260507160519 | 67 | 293 | 1.7 | 4.3 | 0.00 | 0.00 | 0.00 | 70 | 1011.9 |
| 20260507155559 | 68 | 45 | 0.9 | 3.5 | 0.00 | 0.00 | 0.00 | 77 | 1011.8 |
| 20260507154539 | 68 | 90 | 3.5 | 7.8 | 0.00 | 0.00 | 0.00 | 76 | 1011.4 |
| 20260507153539 | 68 | 113 | 4.3 | 9.6 | 0.00 | 0.00 | 0.00 | 76 | 1011.4 |
| 20260507152519 | 68 | 68 | 3.5 | 9.6 | 0.00 | 0.00 | 0.00 | 76 | 1011.4 |
| 20260507151519 | 68 | 135 | 4.3 | 13.9 | 0.00 | 0.00 | 0.00 | 76 | 1011.3 |
| 20260507150519 | 68 | 68 | 4.3 | 11.3 | 0.00 | 0.00 | 0.00 | 77 | 1011.2 |
| 20260507145519 | 68 | 90 | 4.3 | 10.4 | 0.00 | 0.00 | 0.00 | 77 | 1011.2 |
| 20260507144519 | 68 | 68 | 3.5 | 8.7 | 0.00 | 0.00 | 0.00 | 78 | 1011.1 |
| 20260507143519 | 68 | 90 | 2.6 | 12.2 | 0.00 | 0.00 | 0.00 | 79 | 1011.3 |
| 20260507142519 | 68 | 90 | 4.3 | 9.6 | 0.00 | 0.00 | 0.00 | 79 | 1011.4 |
| 20260507141539 | 68 | 113 | 5.2 | 13.0 | 0.00 | 0.00 | 0.00 | 78 | 1011.3 |
| 20260507140519 | 68 | 68 | 3.5 | 9.6 | 0.00 | 0.00 | 0.00 | 78 | 1011.3 |
| 20260507135519 | 68 | 68 | 4.3 | 12.2 | 0.00 | 0.00 | 0.00 | 78 | 1011.4 |
| 20260507134519 | 69 | 135 | 4.3 | 10.4 | 0.00 | 0.00 | 0.00 | 76 | 1011.5 |
| 20260507133519 | 69 | 225 | 3.5 | 7.0 | 0.00 | 0.00 | 0.00 | 75 | 1011.6 |
| 20260507132519 | 70 | 135 | 2.6 | 8.7 | 0.00 | 0.00 | 0.00 | 74 | 1011.6 |
| 20260507131519 | 70 | 90 | 4.3 | 10.4 | 0.00 | 0.00 | 0.00 | 71 | 1011.8 |
| 20260507130519 | 70 | 68 | 5.2 | 12.2 | 0.00 | 0.00 | 0.00 | 71 | 1012.1 |
| 20260507125519 | 71 | 135 | 5.2 | 13.9 | 0.00 | 0.00 | 0.00 | 70 | 1012.1 |
| 20260507124519 | 71 | 45 | 4.3 | 10.4 | 0.00 | 0.00 | 0.00 | 70 | 1012.2 |
| 20260507123519 | 70 | 68 | 4.3 | 8.7 | 0.00 | 0.00 | 0.00 | 71 | 1012.3 |
| 20260507122519 | 70 | 68 | 7.0 | 14.8 | 0.00 | 0.00 | 0.00 | 72 | 1012.4 |
| 20260507121519 | 70 | 90 | 5.2 | 12.2 | 0.00 | 0.00 | 0.00 | 70 | 1012.4 |
| 20260507120519 | 70 | 68 | 5.2 | 13.0 | 0.00 | 0.00 | 0.00 | 69 | 1012.5 |
| 20260507115519 | 71 | 90 | 3.5 | 8.7 | 0.00 | 0.00 | 0.00 | 71 | 1012.5 |
| 20260507114519 | 70 | 135 | 5.2 | 11.3 | 0.00 | 0.00 | 0.00 | 73 | 1012.7 |
| 20260507113519 | 71 | 113 | 3.5 | 10.4 | 0.00 | 0.00 | 0.00 | 71 | 1012.8 |
| 20260507112519 | 71 | 90 | 3.5 | 8.7 | 0.00 | 0.00 | 0.00 | 72 | 1012.8 |
| 20260507111519 | 70 | 90 | 3.5 | 9.6 | 0.00 | 0.00 | 0.00 | 71 | 1013.0 |
| 20260507110519 | 70 | 113 | 3.5 | 11.3 | 0.00 | 0.00 | 0.00 | 71 | 1013.1 |
| 20260507105519 | 69 | 113 | 4.3 | 10.4 | 0.00 | 0.00 | 0.00 | 72 | 1013.2 |
| 20260507104519 | 69 | 113 | 5.2 | 11.3 | 0.00 | 0.00 | 0.00 | 71 | 1013.2 |
| 20260507103517 | 69 | 68 | 4.3 | 9.6 | 0.00 | 0.00 | 0.00 | 70 | 1013.4 |
| 20260507102519 | 70 | 158 | 2.6 | 7.0 | 0.00 | 0.00 | 0.00 | 70 | 1013.2 |
| 20260507101517 | 69 | 68 | 4.3 | 10.4 | 0.00 | 0.00 | 0.00 | 70 | 1013.3 |
| 20260507100519 | 69 | 113 | 3.5 | 8.7 | 0.00 | 0.00 | 0.00 | 69 | 1013.3 |
| 20260507095519 | 69 | 113 | 2.6 | 7.0 | 0.00 | 0.00 | 0.00 | 70 | 1013.4 |
| 20260507094519 | 69 | 90 | 3.5 | 7.8 | 0.00 | 0.00 | 0.00 | 71 | 1013.5 |
| 20260507093519 | 69 | 113 | 2.6 | 7.8 | 0.00 | 0.00 | 0.00 | 70 | 1013.6 |
| 20260507092519 | 69 | 68 | 3.5 | 9.6 | 0.00 | 0.00 | 0.00 | 68 | 1013.6 |
| 20260507091519 | 69 | 113 | 2.6 | 6.1 | 0.00 | 0.00 | 0.00 | 68 | 1013.5 |